Abbeville, LA

6:43 PM CST on December 12, 2017 (GMT -0600)
Abbeville

Weather History for KIYA - October, 2012

Change the Weather History Date:

Thursday, October 18, 2012

  Actual Average (KARA) Record (KARA)
Temperature  
Mean Temperature 74 °F -  
Max Temperature 81 °F 77 °F 90 °F (1953)
Min Temperature 64 °F 57 °F 37 °F (1948)
Cooling Degree Days 9    
Growing Degree Days 24 (Base 50)    
Moisture  
Dew Point 61 °F    
Average Humidity 67    
Maximum Humidity 100    
Minimum Humidity 29    
Precipitation  
Precipitation 0.00 in - - ()
Sea Level Pressure  
Sea Level Pressure 29.83 in    
Wind  
Wind Speed 7 mph ()    
Max Wind Speed 17 mph    
Max Gust Speed 28 mph    
Visibility 9.5 miles    
Events Rain , Thunderstorm    
Averages and records for this station are not official NWS values.
T = Trace of Precipitation, MM = Missing Value Source: Averaged Metar Reports

Daily Weather History Graph

Daily Weather History Graph

Search for Another Location

Airport or City:

Trip Planner

Search our weather history database for the weather conditions in past years. The results will help you decide how hot, cold, wet, or windy it might be!

Date:

Astronomy

Oct. 18, 2012 Rise Set
Actual Time 7:12 AM CDT 6:33 PM CDT
Civil Twilight 6:48 AM CDT 6:57 PM CDT
Nautical Twilight 6:20 AM CDT 7:25 PM CDT
Astronomical Twilight 5:52 AM CDT 7:53 PM CDT
Moon 10:40 AM CDT (10/18) 9:23 PM CDT (10/18)
Length of Visible Light 12h 09m
Length of Day
11h 21m
Waxing Crescent, 14% of the Moon is Illuminated
Oct 18
Waxing Crescent
Oct 21
First Quarter
Oct 29
Full
Nov 6
Last Quarter
Nov 13
New

Hourly Weather History & Observations

Time (CDT) Temp. Dew Point Humidity Pressure Visibility Wind Dir Wind Speed Gust Speed Precip Events Conditions
12:15 AM 77.9 °F 77.5 °F 99% 29.74 in 10.0 mi South 5.8 mph - N/A   Clear
12:35 AM 77.9 °F 77.9 °F 100% 29.74 in 10.0 mi South 6.9 mph - N/A   Clear
12:55 AM 78.1 °F 77.9 °F 99% 29.73 in 10.0 mi South 8.1 mph - N/A   Mostly Cloudy
1:15 AM 77.9 °F 77.9 °F 100% 29.74 in 10.0 mi SSW 5.8 mph - N/A   Mostly Cloudy
1:35 AM 78.1 °F 78.1 °F 100% 29.74 in 10.0 mi SSW 5.8 mph - N/A   Mostly Cloudy
1:55 AM 78.3 °F 78.3 °F 100% 29.74 in 10.0 mi SSW 5.8 mph - N/A   Overcast
2:15 AM 77.7 °F 77.7 °F 100% 29.74 in 10.0 mi SSW 3.5 mph - N/A   Mostly Cloudy
2:35 AM 77.2 °F 77.2 °F 100% 29.74 in 10.0 mi South 4.6 mph - N/A   Clear
2:55 AM 76.3 °F 76.3 °F 100% 29.73 in 7.0 mi South 3.5 mph - N/A   Clear
3:15 AM 76.3 °F 76.3 °F 100% 29.74 in 7.0 mi Calm Calm - N/A   Clear
3:35 AM 76.1 °F 76.1 °F 100% 29.74 in 3.0 mi SSW 4.6 mph - N/A   Scattered Clouds
3:55 AM 77.0 °F 77.0 °F 100% 29.72 in 7.0 mi SSW 5.8 mph - N/A Thunderstorm Scattered Clouds
4:15 AM 77.2 °F 77.2 °F 100% 29.75 in 7.0 mi SW 4.6 mph - N/A   Scattered Clouds
4:35 AM 77.4 °F 77.4 °F 100% 29.75 in 7.0 mi Calm Calm - N/A Rain , Thunderstorm Rain
4:55 AM 72.9 °F 72.9 °F 100% 29.77 in 7.0 mi North 9.2 mph 16.1 mph N/A Rain , Thunderstorm Heavy Thunderstorms and Rain
5:15 AM 72.5 °F 72.5 °F 100% 29.73 in 1.2 mi ENE 17.3 mph 27.6 mph N/A Rain , Thunderstorm Heavy Thunderstorms and Rain
5:35 AM 71.8 °F 70.0 °F 94% 29.75 in 10.0 mi North 5.8 mph - N/A Rain , Thunderstorm Light Thunderstorms and Rain
5:55 AM 70.3 °F 70.2 °F 99% 29.76 in 10.0 mi West 3.5 mph - N/A   Scattered Clouds
6:15 AM 70.2 °F 68.9 °F 96% 29.75 in 10.0 mi Calm Calm - N/A   Clear
6:35 AM 69.4 °F 69.3 °F 99% 29.79 in 10.0 mi NW 13.8 mph - N/A   Clear
6:55 AM 70.9 °F 69.3 °F 95% 29.80 in 10.0 mi NW 11.5 mph - N/A   Clear
7:15 AM 71.2 °F 70.9 °F 99% 29.81 in 10.0 mi NNW 10.4 mph - N/A Thunderstorm Clear
7:35 AM 70.7 °F 70.7 °F 100% 29.81 in 10.0 mi NNW 9.2 mph - N/A Thunderstorm Scattered Clouds
7:55 AM 71.2 °F 71.1 °F 99% 29.82 in 10.0 mi North 9.2 mph - N/A   Mostly Cloudy
8:15 AM 72.0 °F 70.2 °F 94% 29.82 in 10.0 mi North 11.5 mph - N/A   Mostly Cloudy
8:35 AM 72.5 °F 67.1 °F 83% 29.82 in 10.0 mi NNE 8.1 mph - N/A   Clear
9:15 AM 73.4 °F 64.2 °F 73% 29.85 in 10.0 mi NNE 11.5 mph 16.1 mph N/A   Clear
9:35 AM 73.4 °F 64.6 °F 74% 29.85 in 10.0 mi NNE 12.7 mph 17.3 mph N/A   Clear
9:55 AM 74.3 °F 65.1 °F 73% 29.86 in 10.0 mi NNE 12.7 mph 19.6 mph N/A   Clear
10:15 AM 75.2 °F 63.1 °F 66% 29.87 in 10.0 mi NNE 12.7 mph 23.0 mph N/A   Clear
10:35 AM 76.1 °F 63.7 °F 65% 29.87 in 10.0 mi NNE 11.5 mph 16.1 mph N/A   Clear
10:55 AM 76.6 °F 59.2 °F 55% 29.88 in 10.0 mi NNE 15.0 mph 20.7 mph N/A   Clear
11:15 AM 77.2 °F 53.1 °F 43% 29.88 in 10.0 mi NNE 12.7 mph - N/A   Clear
11:35 AM 78.4 °F 51.3 °F 39% 29.88 in 10.0 mi NNE 13.8 mph 19.6 mph N/A   Clear
11:55 AM 79.0 °F 52.5 °F 40% 29.88 in 10.0 mi NE 9.2 mph 17.3 mph N/A   Clear
12:15 PM 80.1 °F 51.6 °F 37% 29.88 in 10.0 mi North 12.7 mph 16.1 mph N/A   Clear
12:35 PM 80.4 °F 48.0 °F 32% 29.88 in 10.0 mi NNE 11.5 mph 17.3 mph N/A   Clear
12:55 PM 80.6 °F 47.1 °F 31% 29.88 in 10.0 mi North 16.1 mph 20.7 mph N/A   Clear
1:15 PM 81.1 °F 46.9 °F 30% 29.87 in 10.0 mi NNE 16.1 mph 21.9 mph N/A   Clear
1:35 PM 81.5 °F 48.6 °F 32% 29.86 in 10.0 mi NE 11.5 mph - N/A   Scattered Clouds
1:55 PM 81.5 °F 46.4 °F 29% 29.85 in 10.0 mi NE 10.4 mph 17.3 mph N/A   Scattered Clouds
2:15 PM 81.5 °F 46.4 °F 29% 29.85 in 10.0 mi NNE 12.7 mph 17.3 mph N/A   Scattered Clouds
2:35 PM 81.0 °F 48.6 °F 32% 29.86 in 10.0 mi North 10.4 mph - N/A   Overcast
2:55 PM 81.3 °F 49.8 °F 33% 29.85 in 10.0 mi North 10.4 mph - N/A   Overcast
3:15 PM 81.9 °F 48.0 °F 31% 29.86 in 10.0 mi North 9.2 mph - N/A   Mostly Cloudy
3:35 PM 81.0 °F 47.5 °F 31% 29.86 in 10.0 mi NNE 9.2 mph - N/A   Mostly Cloudy
3:55 PM 80.6 °F 47.7 °F 31% 29.86 in 10.0 mi NNE 9.2 mph - N/A   Overcast
4:15 PM 81.0 °F 47.8 °F 31% 29.85 in 10.0 mi NE 9.2 mph - N/A   Scattered Clouds
4:35 PM 80.8 °F 48.9 °F 33% 29.85 in 10.0 mi NNE 8.1 mph - N/A   Clear
4:55 PM 80.4 °F 49.5 °F 34% 29.85 in 10.0 mi North 5.8 mph - N/A   Clear
5:15 PM 79.7 °F 49.5 °F 35% 29.85 in 10.0 mi NNE 9.2 mph - N/A   Clear
5:35 PM 78.4 °F 48.9 °F 35% 29.85 in 10.0 mi North 6.9 mph - N/A   Clear
5:55 PM 76.5 °F 50.5 °F 40% 29.86 in 10.0 mi NNE 4.6 mph - N/A   Clear
6:15 PM 74.8 °F 53.1 °F 47% 29.86 in 10.0 mi North 4.6 mph - N/A   Clear
6:55 PM 71.8 °F 54.3 °F 54% 29.87 in 10.0 mi North 4.6 mph - N/A   Scattered Clouds
7:15 PM 70.7 °F 53.4 °F 54% 29.87 in 10.0 mi North 4.6 mph - N/A   Mostly Cloudy
7:35 PM 70.3 °F 53.1 °F 54% 29.88 in 10.0 mi North 3.5 mph - N/A   Mostly Cloudy
7:55 PM 69.3 °F 54.3 °F 59% 29.89 in 10.0 mi North 3.5 mph - N/A   Mostly Cloudy
8:15 PM 69.3 °F 54.3 °F 59% 29.90 in 10.0 mi North 4.6 mph - N/A   Mostly Cloudy
8:35 PM 69.3 °F 53.6 °F 57% 29.90 in 10.0 mi North 3.5 mph - N/A   Mostly Cloudy
8:55 PM 68.4 °F 53.2 °F 58% 29.91 in 10.0 mi North 3.5 mph - N/A   Scattered Clouds
9:15 PM 67.1 °F 54.0 °F 63% 29.92 in 10.0 mi Calm Calm - N/A   Mostly Cloudy
9:35 PM 68.5 °F 53.6 °F 59% 29.92 in 10.0 mi Calm Calm - N/A   Overcast
9:55 PM 68.0 °F 54.1 °F 61% 29.93 in 10.0 mi Calm Calm - N/A   Overcast
10:15 PM 67.1 °F 53.2 °F 61% 29.92 in 10.0 mi North 4.6 mph - N/A   Mostly Cloudy
10:55 PM 64.0 °F 54.9 °F 72% 29.94 in 10.0 mi North 4.6 mph - N/A   Clear